Precipitable_Water
0.13 0.13 0.13 0.13 0.14 0.14 0.14 0.14 0.14 0.14 0.14 0.14 0.13 0.12 0.11 0.10 0.08 0.08 0.08 0.09 0.09 0.09 0.10 0.09 0.11 0.14 0.15 0.17 0.19 0.20 0.21 0.23 0.24 0.25 0.25 0.28 0.31 0.35 0.40 0.43 0.47 0.50 0.52 0.53 0.53 0.52 0.53 0.56 0.60 0.63 0.67 0.73 0.78 0.84 0.87 0.89 0.91 0.93 0.97 0.99 0.97 0.98 1.01 1.06 1.07 1.09 1.12 1.15 1.16 1.20 1.21 1.24 1.30 1.31
0.12 0.12 0.12 0.13 0.13 0.13 0.13 0.13 0.13 0.13 0.13 0.12 0.12 0.12 0.11 0.11 0.10 0.09 0.08 0.09 0.10 0.10 0.11 0.11 0.11 0.13 0.14 0.16 0.17 0.19 0.20 0.21 0.23 0.23 0.24 0.25 0.27 0.30 0.34 0.38 0.42 0.46 0.49 0.51 0.51 0.51 0.50 0.51 0.54 0.58 0.64 0.68 0.73 0.78 0.83 0.86 0.88 0.90 0.94 0.97 0.98 0.96 0.98 1.00 1.02 1.04 1.06 1.09 1.13 1.14 1.15 1.19 1.25 1.24
0.12 0.11 0.11 0.12 0.12 0.12 0.12 0.12 0.12 0.12 0.11 0.11 0.12 0.11 0.11 0.11 0.11 0.11 0.10 0.09 0.10 0.12 0.10 0.11 0.12 0.12 0.13 0.15 0.16 0.17 0.18 0.19 0.21 0.22 0.22 0.22 0.23 0.26 0.29 0.33 0.37 0.41 0.45 0.49 0.50 0.50 0.49 0.49 0.50 0.53 0.58 0.63 0.67 0.72 0.78 0.81 0.84 0.86 0.89 0.93 0.95 0.96 0.96 0.98 1.00 1.02 1.01 1.02 1.05 1.09 1.11 1.15 1.18 1.19
0.12 0.11 0.11 0.11 0.11 0.11 0.11 0.11 0.11 0.11 0.12 0.12 0.13 0.13 0.13 0.13 0.13 0.13 0.12 0.10 0.10 0.12 0.12 0.12 0.13 0.14 0.15 0.16 0.16 0.16 0.16 0.17 0.18 0.19 0.20 0.21 0.21 0.22 0.24 0.27 0.32 0.36 0.40 0.45 0.48 0.49 0.49 0.48 0.47 0.48 0.49 0.55 0.61 0.66 0.72 0.76 0.79 0.83 0.85 0.88 0.90 0.92 0.93 0.96 0.95 0.94 0.94 0.96 0.98 1.00 1.04 1.10 1.15 1.17
0.12 0.12 0.12 0.12 0.12 0.12 0.11 0.11 0.12 0.12 0.12 0.13 0.14 0.14 0.14 0.13 0.13 0.13 0.12 0.11 0.11 0.12 0.13 0.13 0.12 0.13 0.13 0.13 0.14 0.14 0.15 0.16 0.18 0.19 0.19 0.20 0.20 0.20 0.21 0.23 0.26 0.31 0.36 0.40 0.44 0.47 0.48 0.47 0.47 0.46 0.46 0.49 0.54 0.60 0.66 0.70 0.75 0.79 0.81 0.83 0.86 0.88 0.90 0.92 0.93 0.93 0.92 0.92 0.95 0.98 0.98 0.99 1.06 1.09
0.12 0.12 0.12 0.12 0.12 0.12 0.12 0.12 0.12 0.12 0.12 0.12 0.13 0.14 0.14 0.14 0.13 0.14 0.13 0.12 0.11 0.11 0.12 0.12 0.13 0.13 0.13 0.12 0.13 0.14 0.14 0.15 0.16 0.17 0.18 0.19 0.19 0.19 0.20 0.21 0.23 0.27 0.32 0.36 0.41 0.45 0.47 0.47 0.46 0.45 0.45 0.45 0.48 0.53 0.59 0.66 0.70 0.74 0.77 0.80 0.83 0.85 0.86 0.88 0.89 0.90 0.92 0.94 0.95 0.94 0.95 0.96 0.96 1.00
0.13 0.12 0.12 0.12 0.12 0.13 0.13 0.13 0.12 0.12 0.12 0.13 0.12 0.13 0.14 0.13 0.13 0.14 0.14 0.12 0.11 0.11 0.11 0.13 0.12 0.12 0.13 0.12 0.12 0.13 0.14 0.15 0.16 0.16 0.17 0.17 0.18 0.19 0.19 0.20 0.22 0.24 0.27 0.32 0.37 0.41 0.44 0.46 0.46 0.45 0.44 0.44 0.45 0.48 0.53 0.59 0.63 0.68 0.73 0.76 0.79 0.81 0.81 0.81 0.83 0.86 0.87 0.90 0.93 0.93 0.92 0.93 0.93 0.94
0.13 0.13 0.12 0.13 0.13 0.13 0.13 0.13 0.13 0.13 0.13 0.12 0.12 0.13 0.13 0.14 0.13 0.14 0.13 0.13 0.12 0.12 0.11 0.12 0.12 0.12 0.12 0.12 0.13 0.13 0.14 0.14 0.14 0.15 0.16 0.17 0.17 0.18 0.18 0.19 0.21 0.22 0.25 0.28 0.32 0.36 0.40 0.43 0.45 0.45 0.44 0.43 0.43 0.44 0.47 0.51 0.57 0.61 0.67 0.71 0.74 0.77 0.78 0.77 0.77 0.78 0.79 0.82 0.86 0.89 0.90 0.89 0.90 0.90
0.13 0.13 0.13 0.13 0.13 0.13 0.13 0.13 0.13 0.13 0.13 0.13 0.12 0.12 0.12 0.13 0.13 0.13 0.13 0.13 0.13 0.12 0.11 0.12 0.12 0.12 0.12 0.12 0.13 0.13 0.13 0.13 0.14 0.14 0.14 0.15 0.16 0.16 0.17 0.19 0.21 0.21 0.22 0.22 0.25 0.29 0.34 0.37 0.40 0.42 0.43 0.42 0.41 0.42 0.43 0.46 0.50 0.55 0.62 0.67 0.70 0.73 0.75 0.74 0.73 0.74 0.73 0.74 0.77 0.81 0.85 0.85 0.86 0.88
0.13 0.13 0.14 0.14 0.14 0.14 0.14 0.14 0.14 0.13 0.13 0.13 0.13 0.13 0.13 0.12 0.12 0.12 0.12 0.13 0.13 0.12 0.12 0.12 0.11 0.12 0.11 0.11 0.12 0.13 0.13 0.13 0.13 0.13 0.14 0.14 0.16 0.17 0.17 0.17 0.17 0.18 0.18 0.19 0.21 0.25 0.30 0.34 0.37 0.39 0.41 0.41 0.41 0.40 0.40 0.41 0.44 0.48 0.54 0.60 0.66 0.68 0.71 0.72 0.71 0.70 0.70 0.70 0.71 0.73 0.77 0.80 0.81 0.83
0.14 0.14 0.14 0.15 0.15 0.15 0.15 0.15 0.14 0.14 0.14 0.13 0.13 0.13 0.13 0.13 0.13 0.12 0.12 0.12 0.12 0.12 0.12 0.12 0.12 0.11 0.12 0.11 0.11 0.12 0.13 0.13 0.13 0.12 0.12 0.13 0.15 0.16 0.16 0.16 0.16 0.16 0.17 0.18 0.20 0.22 0.25 0.29 0.34 0.37 0.40 0.41 0.40 0.39 0.38 0.38 0.40 0.41 0.46 0.52 0.58 0.64 0.67 0.68 0.69 0.68 0.66 0.66 0.67 0.68 0.70 0.72 0.75 0.78
0.14 0.15 0.15 0.16 0.16 0.16 0.16 0.16 0.15 0.15 0.14 0.14 0.13 0.14 0.14 0.14 0.13 0.13 0.13 0.12 0.12 0.12 0.11 0.11 0.11 0.11 0.11 0.11 0.11 0.12 0.12 0.12 0.12 0.13 0.12 0.12 0.13 0.14 0.15 0.15 0.15 0.16 0.17 0.17 0.17 0.19 0.22 0.26 0.30 0.33 0.35 0.38 0.40 0.40 0.38 0.37 0.37 0.38 0.40 0.43 0.48 0.55 0.61 0.64 0.65 0.65 0.64 0.64 0.64 0.64 0.64 0.66 0.68 0.71
0.15 0.15 0.16 0.17 0.17 0.17 0.17 0.17 0.16 0.16 0.15 0.14 0.13 0.14 0.14 0.14 0.13 0.13 0.13 0.12 0.12 0.12 0.11 0.11 0.11 0.11 0.11 0.11 0.11 0.11 0.11 0.11 0.11 0.12 0.13 0.12 0.13 0.13 0.13 0.14 0.15 0.15 0.14 0.14 0.15 0.17 0.18 0.20 0.25 0.31 0.33 0.34 0.35 0.37 0.38 0.38 0.36 0.36 0.37 0.38 0.41 0.45 0.51 0.56 0.59 0.61 0.61 0.61 0.61 0.61 0.62 0.61 0.63 0.65
0.15 0.16 0.17 0.17 0.18 0.18 0.18 0.17 0.17 0.17 0.16 0.16 0.15 0.14 0.14 0.14 0.13 0.13 0.12 0.12 0.12 0.12 0.11 0.11 0.11 0.11 0.10 0.11 0.11 0.11 0.11 0.11 0.12 0.12 0.12 0.12 0.12 0.12 0.12 0.13 0.14 0.15 0.15 0.14 0.14 0.16 0.20 0.21 0.22 0.26 0.31 0.34 0.35 0.35 0.36 0.36 0.36 0.35 0.35 0.36 0.37 0.39 0.43 0.48 0.51 0.54 0.56 0.57 0.57 0.58 0.58 0.59 0.60 0.61
0.15 0.16 0.17 0.18 0.18 0.18 0.18 0.18 0.18 0.17 0.17 0.16 0.16 0.15 0.15 0.15 0.14 0.13 0.12 0.12 0.12 0.11 0.11 0.11 0.11 0.11 0.10 0.11 0.11 0.11 0.11 0.11 0.11 0.12 0.12 0.12 0.12 0.11 0.10 0.09 0.12 0.15 0.15 0.17 0.17 0.19 0.21 0.23 0.23 0.23 0.26 0.31 0.34 0.36 0.36 0.36 0.35 0.35 0.34 0.34 0.35 0.36 0.38 0.41 0.45 0.48 0.50 0.52 0.52 0.52 0.53 0.54 0.55 0.57
0.16 0.16 0.17 0.18 0.18 0.18 0.18 0.18 0.18 0.18 0.18 0.17 0.17 0.16 0.16 0.15 0.15 0.15 0.13 0.12 0.12 0.12 0.11 0.11 0.11 0.11 0.11 0.11 0.11 0.11 0.11 0.11 0.12 0.12 0.12 0.11 0.11 0.10 0.10 0.10 0.09 0.11 0.15 0.15 0.16 0.17 0.20 0.23 0.24 0.25 0.26 0.28 0.31 0.34 0.36 0.37 0.37 0.37 0.36 0.34 0.34 0.35 0.36 0.37 0.39 0.43 0.45 0.48 0.50 0.49 0.49 0.49 0.50 0.51
0.16 0.17 0.17 0.18 0.19 0.19 0.19 0.19 0.19 0.18 0.18 0.17 0.17 0.17 0.16 0.16 0.16 0.15 0.15 0.15 0.14 0.13 0.12 0.12 0.12 0.12 0.12 0.11 0.11 0.12 0.12 0.13 0.12 0.12 0.11 0.11 0.11 0.11 0.10 0.10 0.10 0.11 0.12 0.14 0.16 0.16 0.16 0.21 0.22 0.23 0.28 0.29 0.30 0.31 0.34 0.37 0.38 0.38 0.39 0.38 0.35 0.35 0.36 0.35 0.35 0.37 0.41 0.43 0.46 0.47 0.47 0.46 0.47 0.47
0.17 0.17 0.18 0.18 0.18 0.19 0.19 0.19 0.19 0.19 0.18 0.17 0.17 0.16 0.16 0.16 0.16 0.16 0.16 0.16 0.15 0.15 0.14 0.13 0.13 0.13 0.13 0.12 0.13 0.14 0.14 0.13 0.12 0.12 0.11 0.11 0.11 0.11 0.10 0.11 0.11 0.12 0.14 0.12 0.14 0.16 0.18 0.20 0.20 0.21 0.24 0.28 0.30 0.32 0.33 0.35 0.37 0.38 0.39 0.39 0.39 0.38 0.37 0.36 0.36 0.35 0.36 0.38 0.41 0.43 0.44 0.44 0.44 0.45
0.18 0.18 0.18 0.19 0.19 0.19 0.19 0.19 0.19 0.19 0.18 0.18 0.17 0.16 0.16 0.16 0.16 0.16 0.16 0.16 0.16 0.16 0.16 0.15 0.15 0.15 0.15 0.15 0.15 0.15 0.15 0.15 0.14 0.13 0.12 0.12 0.12 0.12 0.12 0.12 0.12 0.12 0.14 0.15 0.15 0.12 0.15 0.19 0.20 0.20 0.23 0.25 0.27 0.30 0.31 0.33 0.36 0.38 0.39 0.39 0.39 0.38 0.36 0.35 0.34 0.34 0.34 0.34 0.36 0.38 0.40 0.41 0.41 0.42
0.18 0.19 0.19 0.19 0.19 0.20 0.20 0.20 0.20 0.20 0.19 0.18 0.18 0.17 0.17 0.16 0.16 0.16 0.17 0.17 0.17 0.17 0.17 0.17 0.17 0.16 0.16 0.16 0.16 0.16 0.16 0.15 0.15 0.15 0.14 0.14 0.13 0.11 0.10 0.09 0.10 0.11 0.14 0.17 0.16 0.14 0.15 0.19 0.19 0.20 0.22 0.23 0.22 0.25 0.27 0.30 0.31 0.34 0.36 0.37 0.36 0.36 0.36 0.35 0.34 0.34 0.33 0.32 0.32 0.33 0.35 0.37 0.37 0.38
0.19 0.19 0.20 0.20 0.20 0.20 0.20 0.20 0.21 0.21 0.20 0.19 0.18 0.18 0.17 0.17 0.16 0.16 0.17 0.18 0.18 0.18 0.18 0.18 0.18 0.19 0.18 0.18 0.17 0.17 0.17 0.16 0.16 0.14 0.13 0.11 0.12 0.11 0.10 0.10 0.11 0.11 0.14 0.17 0.18 0.17 0.15 0.18 0.19 0.19 0.20 0.22 0.23 0.23 0.24 0.27 0.29 0.31 0.32 0.35 0.36 0.36 0.35 0.35 0.35 0.34 0.34 0.33 0.32 0.32 0.33 0.34 0.34 0.34
0.19 0.19 0.20 0.21 0.20 0.20 0.21 0.21 0.21 0.21 0.21 0.19 0.18 0.18 0.17 0.17 0.16 0.17 0.17 0.18 0.18 0.19 0.20 0.20 0.20 0.20 0.19 0.19 0.19 0.18 0.18 0.17 0.17 0.15 0.12 0.12 0.13 0.11 0.11 0.10 0.11 0.11 0.14 0.15 0.18 0.17 0.16 0.16 0.19 0.19 0.22 0.23 0.22 0.23 0.25 0.27 0.29 0.31 0.31 0.32 0.33 0.35 0.35 0.35 0.35 0.35 0.34 0.34 0.34 0.33 0.33 0.33 0.33 0.34
0.19 0.19 0.20 0.21 0.21 0.21 0.21 0.21 0.21 0.21 0.21 0.19 0.19 0.18 0.18 0.17 0.16 0.17 0.18 0.17 0.17 0.17 0.18 0.18 0.19 0.19 0.20 0.20 0.19 0.19 0.18 0.18 0.18 0.18 0.16 0.15 0.14 0.12 0.12 0.12 0.12 0.10 0.10 0.13 0.18 0.15 0.15 0.18 0.17 0.17 0.17 0.18 0.21 0.24 0.24 0.25 0.26 0.29 0.32 0.31 0.32 0.33 0.35 0.35 0.35 0.35 0.35 0.35 0.34 0.34 0.34 0.34 0.34 0.34
0.18 0.19 0.20 0.21 0.21 0.21 0.21 0.21 0.21 0.21 0.22 0.20 0.20 0.19 0.18 0.17 0.17 0.18 0.18 0.18 0.18 0.18 0.18 0.18 0.18 0.18 0.18 0.19 0.19 0.19 0.18 0.18 0.18 0.19 0.18 0.17 0.16 0.14 0.14 0.13 0.12 0.11 0.10 0.14 0.19 0.17 0.18 0.20 0.19 0.22 0.19 0.15 0.17 0.22 0.23 0.24 0.26 0.27 0.29 0.30 0.30 0.31 0.32 0.34 0.35 0.36 0.36 0.36 0.35 0.35 0.34 0.34 0.35 0.35
0.17 0.18 0.19 0.20 0.21 0.21 0.21 0.22 0.21 0.21 0.22 0.22 0.21 0.20 0.19 0.19 0.19 0.20 0.19 0.19 0.20 0.19 0.19 0.19 0.18 0.18 0.18 0.18 0.18 0.18 0.18 0.18 0.18 0.18 0.18 0.18 0.18 0.16 0.15 0.13 0.13 0.12 0.12 0.15 0.18 0.18 0.16 0.19 0.18 0.21 0.21 0.22 0.21 0.22 0.26 0.27 0.28 0.28 0.29 0.29 0.29 0.30 0.31 0.31 0.33 0.34 0.35 0.36 0.36 0.36 0.35 0.35 0.35 0.34
0.17 0.18 0.19 0.19 0.20 0.21 0.21 0.22 0.22 0.21 0.22 0.22 0.22 0.21 0.21 0.21 0.21 0.21 0.21 0.21 0.21 0.20 0.20 0.19 0.19 0.18 0.18 0.17 0.18 0.18 0.18 0.18 0.18 0.18 0.17 0.18 0.18 0.18 0.17 0.16 0.14 0.13 0.13 0.17 0.19 0.18 0.17 0.18 0.19 0.19 0.20 0.21 0.20 0.21 0.23 0.25 0.28 0.30 0.30 0.30 0.29 0.30 0.31 0.31 0.32 0.33 0.35 0.36 0.37 0.38 0.37 0.37 0.36 0.36
0.17 0.19 0.19 0.20 0.21 0.21 0.22 0.22 0.22 0.21 0.21 0.22 0.22 0.22 0.22 0.22 0.22 0.22 0.22 0.22 0.21 0.20 0.20 0.19 0.18 0.18 0.18 0.17 0.17 0.18 0.18 0.18 0.18 0.19 0.19 0.19 0.19 0.18 0.19 0.19 0.18 0.17 0.18 0.19 0.20 0.20 0.19 0.19 0.21 0.20 0.20 0.21 0.20 0.21 0.22 0.22 0.24 0.29 0.30 0.29 0.29 0.30 0.31 0.31 0.30 0.31 0.33 0.35 0.36 0.37 0.38 0.39 0.39 0.38
0.18 0.18 0.19 0.20 0.21 0.21 0.22 0.22 0.21 0.22 0.22 0.22 0.22 0.22 0.21 0.22 0.23 0.22 0.21 0.20 0.20 0.20 0.20 0.19 0.19 0.18 0.19 0.19 0.18 0.18 0.19 0.19 0.20 0.20 0.20 0.20 0.20 0.20 0.19 0.19 0.20 0.20 0.20 0.20 0.20 0.20 0.20 0.19 0.21 0.22 0.21 0.20 0.19 0.19 0.17 0.22 0.25 0.26 0.25 0.29 0.29 0.30 0.30 0.30 0.30 0.31 0.31 0.33 0.34 0.35 0.36 0.36 0.38 0.40
0.18 0.19 0.19 0.20 0.21 0.21 0.22 0.22 0.21 0.22 0.22 0.22 0.22 0.21 0.22 0.23 0.22 0.20 0.19 0.19 0.19 0.18 0.19 0.19 0.19 0.19 0.19 0.20 0.20 0.20 0.20 0.20 0.21 0.21 0.21 0.21 0.21 0.21 0.20 0.20 0.21 0.21 0.21 0.21 0.21 0.21 0.21 0.20 0.20 0.21 0.22 0.22 0.20 0.20 0.21 0.20 0.23 0.23 0.24 0.26 0.25 0.27 0.29 0.29 0.29 0.30 0.31 0.31 0.31 0.31 0.32 0.33 0.34 0.36
0.18 0.19 0.19 0.20 0.21 0.21 0.22 0.22 0.21 0.21 0.21 0.21 0.21 0.22 0.22 0.22 0.21 0.20 0.19 0.18 0.18 0.18 0.19 0.19 0.19 0.20 0.20 0.20 0.21 0.21 0.21 0.20 0.20 0.20 0.20 0.21 0.21 0.21 0.20 0.19 0.20 0.21 0.22 0.22 0.22 0.22 0.22 0.22 0.21 0.21 0.20 0.21 0.21 0.21 0.21 0.21 0.21 0.22 0.25 0.24 0.23 0.28 0.29 0.30 0.30 0.30 0.29 0.30 0.31 0.31 0.32 0.33 0.33 0.33
0.18 0.18 0.19 0.20 0.21 0.21 0.21 0.22 0.22 0.21 0.21 0.21 0.22 0.21 0.21 0.21 0.21 0.20 0.19 0.19 0.18 0.19 0.19 0.19 0.20 0.20 0.21 0.22 0.22 0.21 0.21 0.20 0.20 0.21 0.20 0.20 0.20 0.21 0.21 0.20 0.19 0.19 0.20 0.21 0.22 0.22 0.22 0.23 0.23 0.22 0.20 0.19 0.20 0.20 0.22 0.22 0.21 0.22 0.23 0.24 0.25 0.21 0.24 0.28 0.29 0.29 0.30 0.30 0.30 0.31 0.32 0.33 0.33 0.34
0.18 0.18 0.19 0.19 0.20 0.21 0.21 0.21 0.21 0.21 0.21 0.20 0.20 0.20 0.20 0.19 0.20 0.19 0.19 0.19 0.19 0.19 0.19 0.19 0.20 0.20 0.20 0.20 0.20 0.21 0.22 0.21 0.21 0.22 0.21 0.20 0.20 0.21 0.21 0.19 0.18 0.18 0.19 0.20 0.21 0.22 0.23 0.23 0.23 0.23 0.23 0.21 0.19 0.20 0.21 0.21 0.20 0.21 0.21 0.23 0.24 0.25 0.27 0.26 0.27 0.28 0.30 0.30 0.29 0.29 0.30 0.31 0.31 0.33
0.17 0.18 0.18 0.18 0.18 0.19 0.19 0.19 0.19 0.19 0.19 0.19 0.19 0.19 0.18 0.18 0.18 0.18 0.17 0.17 0.17 0.18 0.18 0.18 0.18 0.18 0.19 0.19 0.20 0.20 0.20 0.21 0.22 0.23 0.22 0.22 0.21 0.21 0.22 0.20 0.19 0.18 0.18 0.18 0.20 0.21 0.22 0.22 0.24 0.24 0.24 0.24 0.23 0.22 0.21 0.19 0.20 0.20 0.20 0.22 0.23 0.24 0.25 0.26 0.27 0.27 0.28 0.28 0.27 0.27 0.28 0.30 0.31 0.32
0.16 0.16 0.17 0.17 0.17 0.18 0.18 0.18 0.18 0.18 0.18 0.18 0.17 0.17 0.18 0.17 0.17 0.17 0.17 0.17 0.17 0.18 0.18 0.18 0.18 0.18 0.18 0.18 0.19 0.19 0.19 0.19 0.20 0.21 0.21 0.21 0.22 0.20 0.19 0.19 0.19 0.20 0.19 0.19 0.19 0.20 0.21 0.21 0.22 0.24 0.25 0.25 0.25 0.25 0.23 0.21 0.20 0.21 0.21 0.21 0.23 0.23 0.24 0.25 0.26 0.26 0.27 0.25 0.25 0.25 0.25 0.26 0.29 0.30
0.15 0.15 0.16 0.17 0.18 0.18 0.18 0.18 0.18 0.18 0.18 0.17 0.17 0.17 0.17 0.17 0.17 0.17 0.17 0.17 0.18 0.17 0.17 0.17 0.17 0.18 0.18 0.17 0.18 0.18 0.18 0.18 0.19 0.20 0.21 0.21 0.21 0.20 0.20 0.19 0.19 0.20 0.20 0.19 0.19 0.21 0.21 0.20 0.20 0.20 0.20 0.21 0.21 0.23 0.25 0.24 0.22 0.21 0.22 0.22 0.23 0.23 0.23 0.24 0.25 0.25 0.25 0.25 0.26 0.23 0.23 0.24 0.25 0.28
0.15 0.16 0.16 0.16 0.17 0.18 0.18 0.18 0.18 0.18 0.18 0.18 0.17 0.17 0.17 0.17 0.17 0.17 0.17 0.17 0.17 0.17 0.17 0.17 0.17 0.17 0.17 0.17 0.17 0.18 0.18 0.18 0.18 0.19 0.19 0.20 0.20 0.20 0.20 0.20 0.20 0.20 0.21 0.20 0.20 0.21 0.22 0.20 0.19 0.18 0.16 0.17 0.16 0.16 0.17 0.24 0.24 0.22 0.21 0.21 0.22 0.23 0.24 0.24 0.25 0.25 0.25 0.24 0.25 0.23 0.21 0.21 0.22 0.25
0.14 0.15 0.16 0.16 0.17 0.17 0.17 0.18 0.18 0.18 0.18 0.18 0.18 0.17 0.17 0.17 0.17 0.17 0.18 0.18 0.17 0.16 0.16 0.16 0.16 0.17 0.17 0.17 0.17 0.17 0.18 0.18 0.18 0.18 0.19 0.19 0.20 0.20 0.19 0.20 0.20 0.21 0.20 0.21 0.21 0.21 0.23 0.21 0.20 0.18 0.17 0.16 0.15 0.14 0.16 0.21 0.22 0.24 0.22 0.21 0.22 0.23 0.24 0.23 0.23 0.22 0.23 0.24 0.24 0.23 0.21 0.22 0.22 0.23
0.14 0.15 0.15 0.16 0.17 0.17 0.17 0.18 0.18 0.18 0.18 0.18 0.18 0.17 0.17 0.17 0.18 0.17 0.18 0.17 0.16 0.16 0.16 0.16 0.16 0.16 0.17 0.17 0.17 0.17 0.17 0.18 0.18 0.18 0.19 0.19 0.19 0.19 0.19 0.19 0.19 0.20 0.20 0.21 0.21 0.21 0.23 0.22 0.21 0.19 0.18 0.16 0.15 0.15 0.15 0.19 0.20 0.22 0.24 0.23 0.21 0.21 0.24 0.23 0.21 0.21 0.21 0.24 0.23 0.23 0.24 0.23 0.22 0.23
0.14 0.15 0.15 0.16 0.16 0.17 0.17 0.17 0.17 0.17 0.18 0.18 0.17 0.17 0.17 0.17 0.17 0.17 0.17 0.17 0.17 0.16 0.16 0.16 0.16 0.16 0.16 0.17 0.17 0.17 0.17 0.17 0.17 0.17 0.18 0.19 0.19 0.19 0.19 0.19 0.19 0.20 0.20 0.19 0.20 0.20 0.21 0.21 0.20 0.20 0.19 0.18 0.17 0.17 0.18 0.17 0.17 0.20 0.22 0.24 0.23 0.22 0.23 0.23 0.21 0.21 0.22 0.22 0.23 0.23 0.23 0.24 0.25 0.25
0.15 0.15 0.15 0.16 0.16 0.17 0.17 0.17 0.17 0.17 0.17 0.17 0.17 0.17 0.17 0.17 0.17 0.17 0.17 0.17 0.16 0.16 0.16 0.16 0.16 0.16 0.16 0.17 0.17 0.17 0.17 0.17 0.17 0.17 0.18 0.18 0.19 0.19 0.18 0.18 0.18 0.18 0.18 0.17 0.17 0.18 0.19 0.19 0.19 0.20 0.20 0.20 0.21 0.22 0.22 0.21 0.22 0.22 0.22 0.24 0.25 0.23 0.23 0.23 0.21 0.21 0.21 0.23 0.23 0.22 0.21 0.22 0.21 0.22
0.15 0.15 0.16 0.16 0.16 0.17 0.17 0.17 0.17 0.17 0.17 0.17 0.17 0.17 0.17 0.17 0.17 0.17 0.17 0.17 0.17 0.16 0.16 0.16 0.16 0.16 0.16 0.17 0.17 0.17 0.16 0.16 0.17 0.17 0.18 0.18 0.18 0.19 0.19 0.19 0.18 0.17 0.17 0.17 0.17 0.17 0.18 0.19 0.20 0.22 0.22 0.22 0.23 0.24 0.22 0.19 0.18 0.19 0.20 0.22 0.25 0.25 0.25 0.25 0.24 0.23 0.22 0.23 0.23 0.22 0.20 0.19 0.20 0.20
0.16 0.15 0.16 0.16 0.17 0.17 0.17 0.17 0.17 0.17 0.16 0.17 0.17 0.17 0.17 0.17 0.17 0.17 0.17 0.17 0.16 0.16 0.16 0.16 0.16 0.16 0.16 0.17 0.17 0.17 0.16 0.16 0.17 0.17 0.18 0.18 0.18 0.18 0.18 0.18 0.17 0.17 0.17 0.16 0.17 0.17 0.19 0.21 0.22 0.23 0.23 0.22 0.22 0.19 0.18 0.18 0.18 0.19 0.20 0.21 0.22 0.24 0.25 0.25 0.25 0.25 0.25 0.23 0.22 0.21 0.20 0.20 0.20 0.19
0.15 0.15 0.15 0.16 0.16 0.16 0.16 0.16 0.17 0.16 0.16 0.17 0.17 0.17 0.17 0.17 0.17 0.17 0.17 0.17 0.17 0.16 0.16 0.16 0.16 0.16 0.16 0.17 0.17 0.17 0.17 0.17 0.17 0.17 0.17 0.18 0.18 0.18 0.17 0.17 0.17 0.17 0.17 0.17 0.18 0.19 0.20 0.21 0.22 0.22 0.22 0.21 0.21 0.20 0.18 0.19 0.19 0.20 0.20 0.20 0.20 0.23 0.24 0.25 0.25 0.25 0.25 0.25 0.25 0.24 0.23 0.21 0.18 0.16
0.15 0.15 0.15 0.15 0.16 0.16 0.16 0.16 0.16 0.16 0.16 0.16 0.16 0.16 0.16 0.16 0.16 0.17 0.17 0.17 0.17 0.16 0.16 0.16 0.16 0.16 0.16 0.17 0.17 0.17 0.17 0.17 0.17 0.17 0.18 0.18 0.18 0.18 0.18 0.18 0.18 0.18 0.17 0.18 0.19 0.19 0.20 0.21 0.21 0.22 0.21 0.20 0.21 0.20 0.18 0.19 0.19 0.20 0.20 0.21 0.21 0.21 0.21 0.23 0.24 0.25 0.25 0.25 0.25 0.25 0.25 0.24 0.24 0.23
0.14 0.15 0.15 0.15 0.15 0.15 0.16 0.16 0.16 0.16 0.16 0.16 0.16 0.16 0.16 0.16 0.16 0.16 0.17 0.17 0.16 0.16 0.16 0.16 0.16 0.16 0.17 0.17 0.17 0.16 0.17 0.17 0.18 0.18 0.18 0.18 0.19 0.19 0.18 0.18 0.18 0.18 0.18 0.18 0.18 0.18 0.19 0.20 0.21 0.22 0.21 0.21 0.21 0.20 0.20 0.20 0.20 0.20 0.21 0.21 0.20 0.21 0.21 0.22 0.21 0.21 0.21 0.22 0.24 0.25 0.25 0.25 0.25 0.24
Wind_Speed
35 34 34 34 33 33 33 33 32 32 31 30 30 30 30 29 28 26 25 24 24 26 27 30 33 36 38 40 41 42 43 44 43 43 43 43 43 43 43 43 43 42 42 42 44 46 48 49 50 51 50 48 45 41 39 42 45 44 45 47 49 49 48 46 44 44 47 51 53 52 52 52 52 52
35 34 34 33 32 32 32 32 32 32 31 30 30 30 29 29 28 27 26 25 24 25 27 29 32 35 37 39 41 42 43 44 44 44 43 43 44 44 44 44 45 45 44 44 44 46 48 50 51 52 52 52 51 46 41 40 42 44 44 44 46 48 49 49 47 45 44 46 49 50 51 51 51 51
35 34 34 33 32 32 31 31 31 31 30 30 29 30 29 29 28 28 27 26 25 25 26 29 32 35 37 39 42 43 44 45 46 45 45 45 44 44 44 45 46 46 46 46 46 47 48 50 52 53 53 53 53 53 49 45 43 43 44 44 44 45 47 49 50 48 46 45 45 47 49 50 50 50
34 33 33 33 33 32 30 30 30 29 29 28 27 28 28 28 27 27 26 26 25 25 26 29 32 35 37 38 41 44 45 46 46 46 46 46 45 45 45 45 46 47 48 48 48 48 49 50 53 55 56 55 55 55 54 51 47 44 44 44 44 45 45 47 49 50 50 48 45 45 47 47 48 48
34 33 33 33 32 31 30 29 29 28 27 27 26 26 27 27 26 26 26 26 26 25 26 27 31 34 36 37 39 42 44 45 46 46 46 47 46 46 46 46 46 47 48 49 49 49 49 51 53 55 56 57 56 56 56 56 52 48 45 44 44 45 46 46 47 48 49 50 48 47 47 47 46 46
34 33 33 32 31 30 30 29 28 28 27 26 25 26 26 26 26 25 25 25 25 25 25 26 29 32 35 36 38 40 43 44 45 46 47 47 47 47 46 47 47 47 48 49 50 50 50 51 53 54 56 57 57 57 57 58 57 53 49 46 45 45 45 46 47 47 48 49 49 49 48 48 47 46
33 32 32 31 30 29 28 28 28 27 27 26 25 25 25 25 25 25 25 25 25 25 25 25 27 30 34 36 37 39 41 43 45 46 47 48 48 47 47 48 48 49 49 50 51 51 51 52 53 54 56 57 57 57 58 58 59 57 53 49 47 46 45 46 46 47 48 49 49 49 49 50 49 48
32 32 31 30 29 28 27 27 27 26 26 26 26 25 25 25 24 24 24 25 24 24 25 25 26 28 31 35 36 38 40 42 44 46 48 48 48 48 49 49 49 49 50 51 51 52 53 53 53 54 56 57 58 58 58 58 59 59 58 54 50 48 47 46 46 46 47 49 49 49 49 50 51 51
32 31 31 30 28 27 27 27 26 26 25 25 25 25 25 25 24 24 24 24 24 24 24 25 26 27 29 33 36 37 39 41 43 45 47 48 48 48 49 49 49 50 50 51 51 52 53 54 55 55 56 57 58 59 59 59 59 59 60 58 55 52 50 48 47 47 47 48 49 49 49 49 50 51
32 31 31 30 28 27 27 27 27 26 25 25 24 25 25 25 24 24 24 23 23 24 24 25 26 26 27 30 33 36 38 40 42 44 46 47 48 48 48 49 49 50 51 51 51 52 53 54 55 56 56 57 59 60 60 60 60 60 60 60 58 56 54 52 50 48 48 47 47 49 49 48 48 49
32 31 31 30 29 28 27 27 26 26 25 25 24 24 24 24 24 24 24 23 23 23 24 24 25 26 26 27 30 34 37 39 40 42 44 46 48 48 48 48 48 49 50 51 52 52 53 54 55 56 57 57 58 60 60 60 60 60 61 61 60 58 56 55 53 51 50 49 48 48 48 48 48 47
32 31 31 31 29 28 28 27 26 25 24 23 23 23 23 23 23 23 23 23 23 23 24 24 25 25 26 26 27 30 34 37 39 41 43 44 46 47 48 48 48 48 49 51 52 53 53 54 55 56 57 58 59 59 60 60 60 61 61 61 62 61 58 56 55 54 52 51 50 49 48 48 47 47
32 32 31 31 29 28 28 27 26 25 25 23 22 22 21 21 21 21 22 22 23 23 23 24 24 24 25 26 26 27 30 33 36 38 41 43 44 46 47 48 48 48 49 51 52 53 53 53 54 56 56 57 59 59 60 60 60 60 61 61 61 62 60 58 56 55 54 53 52 51 50 49 48 47
32 32 31 31 30 29 28 28 27 26 26 25 23 22 21 21 20 20 21 21 22 22 22 22 23 23 24 24 25 26 27 30 33 36 38 40 42 44 46 47 48 49 49 50 51 52 53 53 54 55 56 57 58 59 60 61 61 60 61 61 61 62 61 60 58 56 55 54 53 52 51 50 49 49
32 32 31 31 30 29 28 28 27 27 27 26 25 24 22 21 20 20 20 21 21 21 21 21 21 22 23 23 24 24 24 26 29 32 36 38 40 42 44 46 48 49 50 51 52 53 53 54 55 56 57 58 59 59 60 61 61 62 62 62 62 62 62 61 60 59 57 56 55 54 53 52 51 50
32 31 31 31 30 29 29 28 27 27 27 27 26 25 24 23 22 21 20 20 20 20 20 20 20 20 21 22 22 22 22 23 25 28 31 35 38 40 42 44 46 49 51 51 53 54 54 55 56 57 58 59 60 60 61 61 61 62 62 62 62 62 62 62 62 61 59 58 56 55 55 53 52 52
33 32 31 31 30 30 29 28 28 27 27 27 26 26 24 24 23 23 22 21 20 19 19 19 19 19 19 20 21 21 21 22 23 24 27 30 34 37 40 42 45 48 50 52 53 54 55 55 56 57 58 59 60 61 61 61 61 61 62 62 63 63 62 63 63 62 61 60 58 57 56 55 54 54
34 33 32 31 31 30 29 28 27 27 26 26 26 25 24 24 23 23 23 23 22 21 20 20 20 19 19 20 20 21 21 22 22 23 24 26 30 34 37 40 43 46 49 51 53 55 56 56 56 57 58 58 60 61 62 62 61 62 62 63 63 63 63 63 63 63 63 63 61 60 58 57 56 56
34 34 33 32 31 30 29 28 27 26 26 26 25 24 24 23 23 23 23 22 22 22 22 22 21 20 20 20 20 20 20 21 21 22 22 24 26 29 34 37 40 43 46 49 51 54 56 57 57 57 57 58 59 61 61 62 62 62 62 63 63 63 63 63 63 63 63 63 63 62 61 60 59 58
35 35 33 32 31 30 29 28 27 26 26 25 24 24 23 23 23 22 22 22 22 21 21 22 21 21 21 21 20 20 19 19 19 20 21 22 23 25 28 32 37 40 43 46 49 52 54 56 58 58 58 58 59 60 61 62 62 62 62 63 63 63 63 63 63 63 63 63 63 63 62 61 60 60
35 35 34 33 32 31 29 27 27 26 25 24 24 24 23 23 23 22 22 22 22 22 21 21 21 21 21 21 20 20 19 19 19 18 19 20 20 21 23 26 31 36 40 43 46 49 52 54 57 58 58 59 59 60 61 61 62 63 63 63 63 63 63 63 63 63 63 63 62 62 62 62 61 61
35 36 35 34 32 31 29 28 26 26 25 24 23 23 23 23 23 23 22 22 21 21 21 21 21 21 21 21 20 20 20 20 19 18 18 18 18 19 20 22 25 30 36 39 43 47 49 51 54 57 58 59 60 60 61 61 62 62 62 63 63 64 64 64 64 63 63 63 63 62 62 62 62 62
35 36 36 35 34 32 30 28 27 26 25 24 23 23 22 22 23 23 22 22 21 20 20 20 19 20 19 19 19 19 20 20 19 18 18 18 18 18 19 20 21 24 29 34 39 43 46 47 49 53 55 57 59 60 60 61 61 62 62 62 63 64 64 64 64 64 64 64 63 63 63 62 62 62
35 36 35 35 34 33 31 29 27 26 26 25 23 22 21 21 22 21 21 22 21 20 19 19 18 18 18 17 17 17 18 19 19 18 18 17 17 17 18 18 19 20 24 28 33 38 42 44 46 48 51 54 56 57 59 60 61 61 62 61 61 63 64 64 64 65 65 65 64 64 64 63 63 62
35 36 35 34 34 34 32 30 28 27 26 25 24 23 22 21 21 21 20 21 21 20 19 18 18 17 17 17 16 16 17 17 17 17 17 16 16 16 16 17 17 18 20 23 27 31 36 39 43 45 46 50 53 54 56 58 59 60 62 62 61 61 62 63 64 64 65 65 65 65 65 65 65 64
36 36 35 34 34 34 33 31 30 28 27 26 24 23 22 22 22 21 20 20 19 19 18 18 17 17 17 16 16 15 16 16 16 16 16 16 16 16 15 15 15 15 16 18 21 25 30 34 38 42 44 46 49 51 53 55 57 58 60 61 61 61 61 62 62 63 64 64 64 65 65 65 65 65
36 36 35 34 34 34 33 32 31 29 28 26 24 23 22 22 22 20 19 18 18 18 18 17 17 17 17 16 16 15 15 15 15 15 15 15 16 15 15 14 14 14 15 16 18 21 25 29 33 37 41 44 46 48 50 53 54 55 57 59 60 60 61 61 61 61 62 63 63 64 64 64 64 65
37 37 35 34 34 34 33 32 31 30 28 26 24 23 22 21 20 19 18 17 17 18 18 17 17 17 17 16 16 16 15 15 15 15 15 15 16 15 15 14 14 14 15 16 17 18 21 25 28 31 35 39 42 45 48 50 51 53 55 57 58 59 59 60 60 61 61 61 62 62 62 63 63 64
38 37 36 35 34 34 33 32 31 30 28 27 25 23 21 20 19 18 18 17 17 18 18 18 17 17 17 17 17 16 16 16 16 15 15 15 15 15 15 15 14 14 14 15 16 16 17 20 24 27 30 33 37 40 44 46 48 51 52 54 55 57 58 59 59 60 60 61 61 61 61 62 63 63
38 38 36 35 35 34 33 32 30 29 28 28 26 23 22 21 19 19 18 18 17 18 18 18 18 18 17 17 17 17 17 17 17 16 16 16 16 15 15 15 15 15 15 15 15 16 16 17 19 22 25 28 31 35 39 42 44 47 49 51 52 54 55 57 58 59 59 60 60 60 61 61 61 62
37 38 38 36 35 34 34 32 31 30 29 28 26 24 22 21 20 19 19 18 18 18 18 18 18 18 17 18 18 18 18 18 18 17 17 17 16 16 16 15 15 15 15 15 16 16 16 16 17 19 21 24 27 30 33 37 40 43 46 48 49 50 52 54 56 57 58 59 59 59 60 60 60 61
36 37 38 37 35 34 34 33 31 30 29 28 26 25 23 22 21 20 19 19 18 18 19 19 19 18 18 18 18 18 18 18 18 18 18 18 18 18 17 17 16 16 16 16 16 17 17 17 17 17 19 20 22 25 28 31 35 38 40 44 46 48 49 51 53 54 55 56 57 58 59 59 60 60
36 36 37 37 35 34 34 33 31 30 29 28 27 26 24 23 22 20 19 19 18 18 18 19 19 19 19 19 19 19 19 19 19 19 19 19 19 19 19 18 17 17 17 17 17 18 18 18 18 18 18 19 20 22 24 26 29 32 35 38 41 44 46 48 50 51 53 54 55 56 57 58 58 59
38 37 37 36 35 34 34 33 31 30 29 28 27 27 26 24 22 21 20 19 18 18 18 18 18 18 18 19 19 19 19 19 20 20 20 19 19 19 19 19 19 19 18 18 18 18 19 19 19 20 20 20 20 22 23 24 25 27 30 33 35 38 41 44 46 48 50 51 53 54 55 56 56 57
38 38 37 36 34 34 33 33 31 30 30 29 28 27 26 24 23 22 20 20 19 18 18 18 18 18 18 18 19 19 19 19 19 20 20 20 20 20 20 20 20 20 20 19 19 19 19 20 20 20 21 21 22 22 23 25 25 25 26 29 31 33 36 38 41 43 46 48 50 51 52 53 54 55
37 37 37 37 35 33 33 32 31 30 29 28 28 27 25 24 23 22 21 20 19 19 18 17 17 18 18 18 18 19 19 19 19 19 20 20 20 20 20 20 21 21 21 21 20 20 20 21 21 21 22 22 23 23 24 26 26 26 26 27 28 30 31 33 36 38 41 43 46 48 49 50 51 52
38 37 36 37 35 33 32 32 31 30 29 28 27 27 26 25 24 23 21 21 20 19 19 18 18 18 18 18 18 18 19 19 19 20 20 20 20 20 20 20 21 21 21 21 21 21 22 22 22 23 23 23 23 24 25 25 27 28 27 27 27 28 29 30 32 34 36 38 41 43 44 46 47 49
38 38 36 36 35 34 32 32 31 30 29 28 27 27 26 25 24 23 22 22 21 21 20 19 19 19 19 18 18 18 18 19 19 19 19 20 20 20 20 20 20 21 21 21 22 22 22 23 23 24 25 25 25 25 25 25 26 27 28 28 28 27 28 29 30 31 32 34 36 38 39 41 43 44
36 37 36 35 34 33 32 32 30 29 29 29 28 27 26 25 24 23 23 23 22 21 21 20 20 20 19 19 18 18 18 19 19 19 19 19 19 19 19 19 20 20 21 21 22 22 22 23 23 24 25 26 26 26 26 26 27 27 29 30 29 28 27 27 28 28 30 31 33 34 35 37 39 40
34 35 35 34 34 33 32 31 30 29 29 29 28 27 26 25 24 23 23 23 22 22 22 21 21 20 20 19 19 18 18 18 18 18 19 19 19 19 19 19 20 20 20 21 21 22 22 22 23 23 24 25 26 26 26 26 26 27 27 29 30 29 28 27 27 27 28 29 31 32 33 34 36 37
33 33 33 33 33 32 31 30 29 29 28 28 27 27 26 25 24 23 23 22 22 22 22 22 21 21 20 20 19 19 18 18 18 18 18 19 19 19 19 19 19 19 19 20 20 20 21 21 21 21 22 23 24 24 24 24 25 26 26 27 29 30 29 29 28 27 27 28 30 31 31 32 33 34
31 32 32 32 31 31 30 30 29 28 27 27 26 26 25 25 24 23 23 22 22 22 22 22 21 21 21 20 20 19 19 18 18 17 17 18 18 18 18 18 18 18 18 18 18 18 18 18 18 19 20 20 21 22 23 23 23 24 25 26 27 28 29 30 29 28 27 27 28 29 29 30 31 32
27 29 30 31 30 30 29 29 28 27 26 26 26 25 25 25 24 23 23 22 22 22 22 21 21 21 21 20 20 20 20 19 19 18 17 17 18 18 17 17 17 17 16 16 15 15 14 15 15 16 16 17 19 20 21 22 22 22 23 24 25 26 27 28 28 28 27 27 27 28 28 28 29 30
24 26 28 29 29 29 28 27 27 26 26 25 26 26 26 25 24 23 23 22 22 22 21 21 21 20 20 20 20 20 20 19 19 18 18 17 17 17 17 16 16 15 15 14 13 12 12 11 12 13 13 14 15 17 18 19 20 20 20 21 22 23 24 25 26 26 26 26 26 27 27 28 28 28
23 24 25 26 26 26 26 26 25 25 25 25 25 26 25 25 24 23 23 23 22 22 21 21 21 20 20 20 20 20 20 19 19 18 17 17 17 16 16 16 15 15 14 13 12 12 11 11 11 11 11 12 13 15 16 17 17 17 18 18 19 20 21 22 23 23 24 24 24 25 25 26 27 27
Wind_Direction
266 266 267 267 267 267 268 269 269 270 271 272 273 274 274 275 276 276 274 271 264 253 244 237 232 228 226 224 222 221 222 222 223 224 224 223 224 224 224 225 225 223 222 221 220 219 218 218 218 217 217 217 216 213 212 213 214 215 215 215 216 216 215 215 215 215 215 215 216 218 218 218 218 218
265 265 266 266 266 266 267 267 268 268 269 270 271 271 271 271 272 273 271 270 264 255 247 239 232 229 228 226 224 224 224 224 224 225 225 225 225 226 226 226 226 225 224 223 222 221 220 219 219 219 219 219 219 217 214 213 214 215 215 214 214 214 215 216 216 216 215 214 215 217 218 219 219 219
264 264 264 265 265 265 266 266 266 267 268 268 269 270 269 268 269 269 269 267 264 257 250 242 235 231 231 230 228 227 227 226 226 227 228 228 228 228 228 227 227 227 226 225 224 224 222 222 221 221 221 221 220 219 218 217 216 217 217 216 214 213 213 215 216 217 216 215 215 215 216 218 219 218
262 263 263 264 264 264 265 265 265 266 266 267 268 268 268 267 267 267 266 265 263 258 252 246 239 233 232 232 231 230 229 229 228 228 228 229 230 229 229 228 227 227 228 227 226 226 225 224 223 223 223 222 221 221 220 219 218 219 218 217 217 215 214 215 216 217 219 219 218 216 216 216 217 218
261 261 262 262 263 263 264 264 264 264 265 265 266 267 267 266 266 266 265 263 263 259 254 248 242 236 233 233 232 231 231 230 229 229 229 229 230 230 229 229 228 227 228 229 228 227 227 226 224 223 223 223 223 222 221 220 220 221 220 219 219 218 217 216 216 217 218 219 220 219 218 217 217 218
260 260 260 261 262 262 262 262 262 263 264 264 265 266 266 265 265 265 264 263 262 260 255 250 245 239 235 234 233 232 232 231 230 230 230 230 230 231 230 229 229 229 228 229 229 228 228 227 226 224 223 223 223 223 222 221 221 221 222 221 220 220 219 218 217 217 217 218 218 219 220 220 219 219
258 258 258 259 260 261 261 261 261 261 262 263 263 265 265 264 264 264 263 262 262 261 257 252 247 242 237 235 234 233 232 232 231 231 231 231 231 231 230 230 230 230 230 229 229 229 229 229 228 225 224 223 223 223 223 223 222 221 221 222 222 221 220 220 220 219 219 219 219 219 220 221 222 222
256 255 255 256 257 258 259 260 260 260 261 262 262 263 264 263 263 263 262 261 260 260 258 254 250 245 241 237 236 234 233 233 233 232 232 232 231 232 231 231 230 230 231 231 230 230 229 229 229 227 225 223 223 223 223 223 222 221 221 222 222 223 222 222 222 222 222 222 221 221 221 221 222 224
253 253 253 254 255 256 256 257 258 259 261 262 262 262 263 262 262 262 261 260 259 259 257 255 252 249 244 241 238 237 236 235 234 234 233 232 232 232 232 231 231 231 231 231 231 231 230 229 229 228 227 225 224 223 223 223 223 222 221 221 222 223 224 223 223 223 223 223 223 223 223 223 223 224
251 251 251 252 253 253 255 256 257 259 260 261 262 262 261 261 261 261 260 259 258 258 257 256 254 252 249 245 241 239 238 236 235 235 234 234 232 232 231 231 231 231 231 231 231 230 229 229 229 228 228 227 225 224 224 223 223 223 222 222 222 223 224 224 225 224 224 224 224 224 224 224 224 224
250 249 250 251 251 252 253 255 256 257 259 260 261 261 261 260 259 259 259 257 257 257 256 255 254 253 252 249 245 242 239 238 236 235 234 234 233 232 231 231 231 231 230 230 230 230 229 229 228 228 228 227 226 225 225 225 224 224 224 223 223 223 224 225 225 225 225 225 224 224 224 225 225 225
249 248 248 249 250 250 252 253 253 254 256 259 260 260 260 259 258 258 257 256 255 256 256 255 254 254 253 252 249 245 241 239 238 236 234 234 234 233 232 231 231 230 230 230 230 229 229 228 228 228 227 227 227 226 226 226 226 225 225 225 224 224 224 225 225 225 225 225 225 225 225 225 225 225
247 247 247 248 248 248 250 251 251 252 253 256 258 259 259 258 258 257 256 255 254 255 256 256 255 253 253 253 251 248 245 242 240 238 236 235 234 234 233 233 232 231 230 230 229 229 228 228 227 226 226 226 227 227 227 227 227 226 226 226 225 225 225 225 226 226 226 226 226 226 227 226 226 226
245 246 246 246 246 247 248 249 250 250 251 253 255 256 257 257 256 256 255 254 254 254 255 256 255 253 252 252 252 252 249 245 242 240 238 236 235 235 234 234 233 232 231 230 229 228 228 228 227 226 225 226 227 227 228 228 228 227 227 226 226 226 226 226 226 226 227 227 227 227 227 227 227 226
243 244 245 245 245 245 246 248 248 248 249 251 252 253 254 255 255 254 254 254 254 253 254 256 255 254 252 252 253 253 252 249 245 242 240 238 236 235 235 235 234 232 231 230 229 228 228 228 228 228 226 226 226 227 228 228 228 228 228 227 227 227 226 226 226 227 227 227 227 228 228 228 228 228
241 242 243 244 244 244 245 247 248 248 248 249 250 251 252 252 253 253 253 254 253 253 254 255 256 255 254 254 254 253 253 251 248 245 242 240 238 237 236 236 235 233 233 232 231 230 228 228 229 229 228 227 227 227 228 228 228 228 228 228 228 227 227 227 227 227 227 227 228 229 229 229 230 229
239 240 241 242 242 243 244 246 247 247 247 248 248 249 250 251 251 251 251 252 252 252 254 255 257 257 257 256 255 254 254 254 252 249 246 244 242 241 239 238 237 236 235 233 232 231 229 229 229 229 228 227 227 228 228 229 228 228 228 228 228 228 228 228 228 228 227 228 229 230 230 231 231 231
238 238 239 240 241 241 243 245 246 246 246 247 246 246 247 248 248 248 249 249 249 251 253 256 258 259 259 259 258 257 256 255 254 253 252 249 246 244 242 240 239 237 236 234 232 231 230 230 229 229 228 228 227 227 228 229 229 229 228 228 229 229 229 229 229 229 229 229 230 230 231 231 232 232
237 237 238 239 240 240 241 243 244 244 245 244 244 243 244 245 246 247 247 248 248 250 253 257 260 261 260 260 260 259 258 256 255 255 255 254 251 248 245 242 240 238 236 234 232 231 230 230 230 229 228 228 227 227 228 229 230 230 229 229 229 229 229 229 230 230 230 230 230 230 231 231 232 232
237 235 236 237 238 238 239 241 242 242 242 241 241 242 242 243 245 246 246 247 248 249 252 256 259 261 260 260 260 259 258 257 256 256 257 255 254 252 249 246 242 239 237 234 232 231 230 230 230 230 229 228 228 228 228 228 229 230 230 230 230 230 230 230 230 230 230 230 231 231 231 232 232 233
235 234 234 235 236 237 237 239 239 239 239 239 240 240 241 241 243 245 246 247 248 249 251 254 257 259 259 258 257 256 255 255 255 256 257 256 256 255 254 250 246 241 238 235 233 231 231 230 229 229 229 229 229 228 228 228 228 229 230 230 230 230 230 230 230 230 230 230 231 231 231 232 233 233
234 233 233 233 234 234 235 236 237 236 237 238 239 239 239 240 241 243 245 247 249 250 252 254 255 256 257 257 256 255 253 253 253 255 256 256 257 258 258 257 253 247 241 236 233 232 232 231 230 229 229 229 229 229 228 228 228 229 229 230 230 230 230 230 230 230 231 231 231 231 232 232 233 233
234 232 231 231 231 232 232 233 234 235 235 237 238 237 238 239 240 242 244 246 249 250 251 253 254 255 256 256 255 254 252 252 252 253 255 256 256 259 261 261 260 254 244 237 233 232 232 231 230 229 229 229 229 229 229 229 228 228 228 229 230 230 230 231 231 231 231 231 231 232 232 233 233 233
232 231 230 230 230 230 229 230 232 233 234 235 236 235 235 237 240 242 243 245 247 248 249 251 252 254 255 255 255 253 252 251 251 250 253 255 256 257 260 262 262 258 248 239 235 233 231 231 230 229 228 229 229 229 229 229 228 228 227 228 229 230 230 231 231 232 232 232 232 232 232 233 233 234
230 229 229 229 228 228 227 227 229 232 233 233 233 234 235 238 240 241 242 244 246 247 248 249 250 251 252 252 252 252 251 250 250 249 249 252 254 256 258 259 261 259 251 244 238 234 231 231 230 229 229 229 228 229 229 228 228 228 228 228 228 229 230 231 231 232 232 232 232 233 233 233 234 234
228 227 228 228 227 226 225 225 227 230 232 232 232 232 234 238 240 240 241 244 245 245 246 247 248 249 249 249 250 249 248 248 248 248 248 249 251 254 255 256 258 257 252 247 240 235 232 230 229 229 229 229 229 229 229 228 228 228 228 228 229 229 229 230 231 232 232 232 233 233 233 234 234 235
226 225 225 225 224 223 222 223 225 227 230 231 230 230 232 235 237 238 239 242 243 243 243 244 245 246 246 247 248 247 247 247 247 247 248 247 248 250 252 254 255 255 252 248 244 238 233 231 230 230 230 230 230 229 229 228 228 228 228 229 229 229 229 230 231 231 232 232 233 233 233 234 235 235
225 223 223 223 222 221 220 222 223 226 228 229 229 230 232 233 232 232 234 238 241 242 241 241 243 244 244 244 246 247 247 247 247 247 248 248 248 249 251 252 253 253 252 248 245 241 236 232 232 232 231 231 230 229 229 229 228 228 228 229 229 230 230 230 231 231 231 232 233 233 234 234 235 235
223 222 221 221 221 219 218 220 222 224 226 227 227 229 230 230 230 231 233 238 242 242 241 241 242 243 244 243 245 246 247 248 248 248 249 249 249 249 250 252 253 252 251 247 244 242 237 233 234 234 233 231 230 229 229 230 229 229 229 229 230 231 231 231 231 231 231 232 233 233 234 235 235 236
222 220 219 219 220 218 217 219 221 223 224 225 225 226 227 229 232 233 235 239 243 243 242 242 242 243 244 244 244 244 245 246 247 248 249 250 250 249 249 251 251 250 248 246 244 243 240 236 235 235 234 233 232 230 230 230 230 230 230 230 231 231 231 231 231 231 232 232 233 234 235 235 236 236
220 219 217 218 219 218 217 218 220 221 221 222 223 225 227 230 231 232 235 240 243 244 243 243 243 244 245 245 245 244 244 245 245 246 247 248 249 250 249 249 250 250 248 246 244 242 241 239 237 236 235 234 233 232 231 231 231 232 231 231 231 232 232 231 232 232 232 232 233 234 235 235 236 237
217 216 215 216 217 218 217 217 217 217 218 220 223 225 227 229 231 233 236 239 242 243 244 244 245 245 245 245 245 245 245 246 245 245 246 247 248 248 248 249 250 250 248 246 244 241 241 241 239 237 236 235 234 234 233 233 233 233 232 232 232 232 232 231 231 232 233 233 234 234 235 236 236 237
214 213 213 214 216 216 216 215 215 215 217 219 223 225 226 229 232 234 235 238 240 241 243 244 245 245 246 246 246 246 246 247 247 247 247 248 249 248 248 249 251 252 251 248 245 242 242 242 240 239 238 237 236 235 235 234 233 232 232 232 232 232 232 232 231 232 233 233 234 235 235 236 237 237
212 211 212 213 214 214 214 214 214 215 217 219 222 224 227 230 231 233 235 237 238 239 240 242 244 245 247 247 247 247 246 246 247 248 248 249 249 249 250 251 252 253 253 251 247 244 242 242 241 240 240 239 238 237 235 235 234 232 232 232 232 231 232 232 232 232 232 233 233 234 235 236 236 237
211 210 211 211 212 212 213 213 214 215 217 219 222 224 226 228 229 231 234 236 237 237 239 241 243 244 246 248 249 249 248 248 247 247 248 248 249 249 250 251 251 251 251 251 250 247 244 243 242 242 242 241 241 240 237 236 235 234 233 232 232 232 232 232 231 231 232 232 233 234 234 235 236 237
209 209 209 209 210 211 212 213 214 215 216 218 220 221 224 227 228 231 233 234 235 237 239 241 243 245 246 248 249 250 250 250 249 248 248 248 248 248 249 250 251 251 250 250 251 250 246 244 244 244 245 244 242 242 240 237 235 234 234 233 233 232 231 231 231 231 232 232 233 234 234 235 236 236
208 208 208 208 210 211 211 212 213 215 216 218 219 221 223 226 229 231 232 234 236 238 240 242 244 246 247 249 250 251 251 251 250 249 248 248 248 249 249 250 251 252 252 251 252 252 249 247 245 246 246 245 243 242 241 238 236 234 233 233 233 232 231 231 231 232 232 232 233 233 234 235 235 236
207 207 208 209 210 211 212 212 214 215 216 218 219 221 224 227 229 231 232 234 237 239 240 242 244 246 248 249 250 251 252 251 251 249 249 249 249 249 250 251 252 253 253 253 253 253 252 250 248 247 247 246 244 242 240 237 236 235 233 232 232 232 231 231 232 233 232 232 232 233 233 234 235 236
206 207 208 209 210 211 212 213 214 215 217 219 221 223 225 227 228 230 232 235 237 239 241 243 244 245 247 249 251 252 252 251 250 250 249 249 250 250 251 252 253 254 254 254 254 254 253 252 251 250 248 246 244 242 240 238 237 236 234 232 232 232 231 230 231 233 232 231 231 232 233 233 234 236
205 206 207 209 210 211 212 212 214 216 218 220 222 225 226 226 228 230 233 235 237 239 241 243 244 245 246 249 251 252 252 251 250 250 251 250 251 251 252 254 256 257 256 256 256 255 254 253 252 251 249 247 245 242 240 239 237 236 234 232 231 232 231 230 231 232 231 230 231 232 233 233 235 236
203 205 206 207 209 210 210 210 213 216 219 220 222 223 224 225 228 231 233 235 237 239 241 243 244 245 246 248 249 250 250 250 250 250 251 251 251 251 252 255 257 257 257 257 257 256 255 254 253 250 248 246 242 239 237 236 235 234 232 232 232 231 231 231 231 232 232 231 231 232 233 234 235 236
201 202 204 205 206 207 208 210 213 216 218 220 220 221 223 225 228 231 234 236 237 239 240 242 243 244 246 247 248 248 248 248 249 250 250 250 250 250 251 254 257 256 255 255 256 255 255 254 251 248 245 242 238 234 233 233 233 231 230 230 231 231 230 230 231 233 233 233 233 234 234 235 236 237
198 200 202 204 205 207 209 212 214 216 218 218 219 221 223 226 229 232 234 236 237 238 240 241 242 244 245 246 247 247 247 247 247 249 249 249 249 249 250 253 255 253 251 251 251 251 251 250 246 242 239 237 234 231 230 229 229 228 227 228 230 231 230 230 230 232 234 235 236 236 236 237 238 239
199 199 201 203 205 207 209 212 214 217 218 219 220 222 224 227 229 232 234 236 237 238 240 241 242 244 245 246 246 246 246 245 245 247 248 248 247 247 248 251 252 249 245 244 244 244 244 243 236 230 230 231 228 226 225 224 224 225 225 226 228 229 229 229 230 232 234 236 237 237 238 238 240 240
200 201 202 203 205 207 209 212 215 217 218 219 221 224 226 228 230 232 234 235 237 238 240 241 243 244 244 245 245 245 244 243 243 245 247 246 244 244 246 248 247 244 240 238 237 235 234 232 226 223 224 225 221 219 219 219 219 220 221 223 225 226 227 228 229 230 232 235 237 238 239 239 240 241